Weather History for Garden City, KS

Change the Weather History Date:

Thursday, November 15, 2012

  Actual Average Record
Temperature  
Mean Temperature 46 °F 42 °F  
Max Temperature 62 °F 56 °F 77 °F (1990)
Min Temperature 29 °F 28 °F 10 °F (1955)
Degree Days  
Heating Degree Days 19 23  
Month to date heating degree days 246 296  
Since 1 July heating degree days 677 686  
Cooling Degree Days 0 0  
Month to date cooling degree days 0 0  
Year to date cooling degree days 1643 1298  
Moisture  
Dew Point 22 °F    
Average Humidity 43    
Maximum Humidity 63    
Minimum Humidity 22    
Precipitation  
Precipitation 0.00 in 0.01 in 1.55 in (1971)
Month to date precipitation 0.00 0.30  
Year to date precipitation 12.67 18.70  
Sea Level Pressure  
Sea Level Pressure 30.26 in    
Wind  
Wind Speed 11 mph (NE)    
Max Wind Speed 24 mph    
Max Gust Speed 29 mph    
Visibility 10 miles    
Events      
T = Trace of Precipitation, MM = Missing Value Source: NWS Daily Summary

Daily Weather History Graph

Daily Weather History Graph

Search for Another Location

Airport:

Trip Planner

Search our weather history database for the weather conditions in past years. The results will help you decide how hot, cold, wet, or windy it might be!

Date:

Astronomy

Nov. 15, 2012 Rise Set
Actual Time 7:24 AM CST 5:30 PM CST
Civil Twilight 6:55 AM CST 5:58 PM CST
Nautical Twilight 6:24 AM CST 6:30 PM CST
Astronomical Twilight 5:52 AM CST 7:01 PM CST
Moon 9:20 AM CST (11/15) 7:25 PM CST (11/15)
Length of Visible Light 11h 03m
Length of Day
10h 06m
Waxing Crescent, 5% of the Moon is Illuminated
Nov 15
Waxing Crescent
Nov 20
First Quarter
Nov 28
Full
Dec 6
Last Quarter
Dec 13
New

Hourly Weather History & Observations

Time (CST) Temp. Windchill Dew Point Humidity Pressure Visibility Wind Dir Wind Speed Gust Speed Precip Events Conditions
12:54 AM 36.0 °F 29.0 °F 19.0 °F 50% 30.09 in 10.0 mi SSE 9.2 mph - N/A   Clear
1:54 AM 34.0 °F 28.0 °F 19.0 °F 54% 30.09 in 10.0 mi SE 6.9 mph - N/A   Clear
2:54 AM 34.0 °F - 19.0 °F 54% 30.10 in 10.0 mi Calm Calm - N/A   Clear
3:54 AM 33.1 °F - 19.9 °F 59% 30.10 in 10.0 mi Calm Calm - N/A   Clear
4:54 AM 32.0 °F 27.5 °F 19.9 °F 61% 30.12 in 10.0 mi NNE 4.6 mph - N/A   Clear
5:54 AM 32.0 °F 24.2 °F 19.9 °F 61% 30.17 in 10.0 mi North 9.2 mph - N/A   Clear
6:54 AM 32.0 °F 25.6 °F 19.9 °F 61% 30.19 in 10.0 mi NNE 6.9 mph - N/A   Clear
7:54 AM 30.0 °F 19.5 °F 19.9 °F 66% 30.23 in 10.0 mi North 13.8 mph - N/A   Clear
8:54 AM 36.0 °F 27.5 °F 21.0 °F 55% 30.25 in 10.0 mi North 12.7 mph - N/A   Clear
9:54 AM 48.0 °F - 26.1 °F 42% 30.25 in 10.0 mi NNE 16.1 mph 25.3 mph N/A   Clear
10:54 AM 53.1 °F - 27.0 °F 37% 30.27 in 10.0 mi ENE 13.8 mph - N/A   Clear
11:54 AM 57.0 °F - 24.1 °F 28% 30.26 in 10.0 mi NNE 20.7 mph 28.8 mph N/A   Clear
12:54 PM 60.1 °F - 25.0 °F 26% 30.25 in 10.0 mi NNE 18.4 mph - N/A   Clear
1:54 PM 61.0 °F - 26.1 °F 26% 30.24 in 10.0 mi NNE 20.7 mph 26.5 mph N/A   Clear
2:54 PM 60.1 °F - 21.9 °F 23% 30.25 in 10.0 mi NNE 19.6 mph - N/A   Clear
3:54 PM 57.9 °F - 19.9 °F 23% 30.27 in 10.0 mi NE 19.6 mph 26.5 mph N/A   Clear
4:54 PM 55.0 °F - 21.9 °F 28% 30.30 in 10.0 mi ENE 15.0 mph - N/A   Clear
5:54 PM 48.0 °F - 24.1 °F 39% 30.35 in 10.0 mi NE 11.5 mph - N/A   Clear
6:54 PM 45.0 °F 40.1 °F 21.9 °F 40% 30.38 in 10.0 mi NE 9.2 mph - N/A   Clear
7:54 PM 39.9 °F 34.5 °F 21.0 °F 47% 30.40 in 10.0 mi NE 8.1 mph - N/A   Clear
8:54 PM 39.0 °F 32.3 °F 21.9 °F 50% 30.40 in 10.0 mi NE 10.4 mph - N/A   Clear
9:54 PM 37.0 °F 30.4 °F 21.9 °F 54% 30.40 in 10.0 mi NE 9.2 mph - N/A   Clear
10:54 PM 37.0 °F 31.0 °F 23.0 °F 57% 30.40 in 10.0 mi NE 8.1 mph - N/A   Clear
11:54 PM 30.0 °F 24.1 °F 21.0 °F 69% 30.41 in 10.0 mi NNE 5.8 mph - N/A   Clear